Location: ???????
(56.2463°N, 29.4352°E)
Time: 17:31:28
(UTC+00:00)

Daily predictions for brighter satellites

Satellite Brightness Start Highest point End
(mag) Time Altitude Azimuth Time Altitude Azimuth Time Altitude Azimuth
TSX-5 3.5 19:47:38 10° NW 19:50:57 87° SW 19:54:50 10° SE
Cosmos 2074 Rocket 4.4 19:45:55 10° SSE 19:51:51 49° E 19:57:49 10° NNE
Cosmos 2058 4.1 19:49:24 10° SSE 19:52:55 27° E 19:56:25 10° NNE
USA 267 3.5 19:48:06 10° SE 19:54:35 60° SSW 20:01:06 10° WNW
CZ-4C R/B 3.7 19:51:01 10° WNW 19:57:05 49° NNE 20:04:21 10° E
Cosmos 1408 4.4 19:55:24 10° SE 19:57:51 18° E 20:00:18 10° NE
COSMOS 2455 3.9 19:57:16 10° NW 20:03:04 44° NNE 20:08:51 10° E
Cosmos 1953 Rocket 3.9 19:58:57 10° SSW 20:03:16 70° WNW 20:07:37 10° N
Cosmos 2322 Rocket 3.4 20:00:24 10° WSW 20:05:50 48° NW 20:11:18 10° NNE
Cosmos 1842 Rocket 3.7 20:02:40 10° NNW 20:07:03 76° W 20:11:23 10° S
SAR-Lupe-2 4.3 20:03:35 10° N 20:07:08 56° WNW 20:10:39 10° SSW
NOSS 7 (D) 3.8 20:04:50 10° SW 20:07:33 79° NW 20:10:13 10° NE
Cosmos 2369 Rocket 3.8 20:11:42 10° NNW 20:16:40 31° NNE 20:21:37 10° E
MTI 3.8 20:14:14 10° NNE 20:17:18 56° ESE 20:20:20 10° S
ATLAS CENTAUR R/B 2.7 20:16:01 10° WNW 20:19:00 23° WSW 20:21:56 10° S
Cosmos 1980 4.5 20:15:47 10° S 20:20:48 34° ESE 20:25:52 10° NE
NOSS 3-4 (A) 3.9 20:17:51 10° NW 20:24:35 72° SW 20:32:04 10° SE
NOSS 3-4 (C) 3.9 20:17:57 10° NW 20:24:42 72° SW 20:32:12 10° SE
ALOS 2 3.6 20:21:04 10° SE 20:25:07 37° ENE 20:29:11 10° N
COSMOS 2428 2.7 20:19:43 10° SSW 20:25:21 70° ESE 20:31:02 10° NE
Cosmos 1825 3.6 20:23:21 10° SE 20:26:25 25° E 20:29:33 10° NNE
Cosmos 371 Rocket 4.3 20:23:03 10° NNW 20:27:43 42° NE 20:32:19 10° ESE
Cosmos 2322 3.9 20:23:36 10° SW 20:29:21 80° NW 20:35:07 10° NE
Cosmos 1869 3.9 20:25:46 10° NNW 20:29:39 53° W 20:33:33 10° S
NOSS 0 Rocket 4.3 20:25:03 10° S 20:30:52 47° ESE 20:36:45 10° NE
Cosmos 1624 Rocket 4.1 20:26:15 10° NNW 20:31:33 79° ENE 20:36:39 11° SSE
Terra 3.0 20:32:44 10° SSW 20:37:07 35° W 20:41:30 10° NNW
NOSS 3-3 (A) 4.0 20:32:09 10° SSW 20:38:05 65° SE 20:44:54 10° NE
NOSS 3-3 (C) 4.1 20:32:15 10° SSW 20:38:12 64° SE 20:45:01 10° NE
Cosmos 2237 Rocket 2.7 20:33:41 10° S 20:39:01 43° ESE 20:44:22 10° NE
Cosmos 2219 Rocket 2.2 20:35:50 10° SSW 20:41:27 88° NW 20:47:08 10° NE
Cosmos 2360 Rocket 3.4 20:38:18 10° WSW 20:43:45 46° NW 20:49:14 10° NNE
Cosmos 1538 Rocket 4.2 20:38:46 10° SSW 20:44:08 79° WNW 20:49:29 10° NNE
Thor Agena Rocket 3.8 20:42:53 10° NNE 20:47:58 54° ESE 20:52:43 11° S
Cosmos 2184 Rocket 4.2 20:43:38 10° SSW 20:49:53 79° WNW 20:56:16 10° N
Cosmos 2333 Rocket 2.5 20:45:37 10° SW 20:51:20 76° NW 20:57:07 10° NE
SL-4 R/B 2.7 20:50:53 10° ESE 20:52:24 18° ENE 20:53:56 10° NNE
ATLAS 2AS CENTAUR R/B 3.1 20:44:53 10° NW 20:52:26 60° SW 20:59:01 12° SSE
Cosmos 2221 3.9 20:54:02 10° NNW 20:57:58 32° W 21:01:50 10° SSW
GEOS 3 Rocket 4.1 20:53:53 10° NE 20:59:15 69° NNW 21:04:37 10° WSW
Cosmos 1371 Rocket 4.2 20:54:02 10° NNW 20:59:15 64° WSW 21:03:55 13° SSE
Cosmos 1818 4.4 20:53:56 10° WSW 20:59:18 57° NNW 21:04:43 10° NE
RESURS DK-1 4.1 20:57:36 10° NNW 21:01:19 30° NE 21:04:59 10° E
USA 215 3.3 20:55:48 10° ENE 21:02:21 64° SSE 21:08:51 10° SW
Iridium 2 3.9 21:00:24 10° N 21:04:13 67° W 21:07:33 13° S
EO 1 Del DPAF 3.2 21:02:56 10° NNE 21:06:43 68° ESE 21:09:59 13° S
Cosmos 2278 Rocket 3.3 21:03:17 10° NW 21:08:17 32° WSW 21:13:09 10° SSW
Cosmos 1328 Rocket 3.8 21:05:23 10° N 21:09:41 60° ENE 21:13:23 14° SSE
Cosmos 2297 3.8 21:04:14 10° NW 21:10:00 80° WSW 21:15:17 12° SSE
Cosmos 1766 Rocket 4.2 21:07:16 14° SSE 21:10:45 42° E 21:14:57 10° NNE
Cosmos 1892 3.2 21:07:18 10° SSW 21:11:03 58° WNW 21:14:50 10° N
Okean 3 Rocket 4.0 21:09:40 14° SSE 21:13:19 50° E 21:17:37 10° NNE
Cosmos 2112 Rocket 4.1 21:08:12 10° SSW 21:13:31 67° ESE 21:18:51 10° NNE
Cosmos 1606 2.7 21:10:15 10° N 21:14:09 80° ENE 21:17:19 15° SSE
Aureole 2 Rocket 2.1 21:12:16 10° NW 21:15:01 58° WSW 21:17:00 18° S
Cosmos 1420 Rocket 4.0 21:10:16 10° NNW 21:15:34 88° WSW 21:20:22 13° SSE
ATLAS 5 CENTAUR R/B 2.6 21:11:31 10° WSW 21:15:53 55° NNW 21:21:00 10° NE
Cosmos 1943 Rocket 2.5 21:11:23 10° NNW 21:17:06 69° NE 21:22:45 10° SE
Cosmos 158 Rocket 3.8 21:13:20 10° SSW 21:18:11 74° ESE 21:23:08 10° NNE
Cosmos 2056 Rocket 4.1 21:17:54 10° NW 21:23:07 51° WSW 21:27:39 14° S
SL-16 R/B 3.0 21:18:55 14° S 21:23:21 37° ESE 21:28:32 10° NE
Lacrosse 5 rocket 1.1 21:19:42 10° WNW 21:23:50 82° SSW 21:27:42 10° ESE
Cosmos 1633 4.2 21:27:04 12° SE 21:29:36 23° E 21:32:30 10° NE
Cosmos 2058 3.9 21:25:42 10° SW 21:29:40 43° WNW 21:33:39 10° N
Cosmos 2154 Rocket 4.3 21:23:39 10° SSW 21:29:48 65° WNW 21:36:02 10° N
Cosmos 1408 3.2 21:29:06 10° SSW 21:32:32 51° WNW 21:36:04 10° N
Cosmos 2341 Rocket 4.0 21:26:53 12° S 21:32:42 86° E 21:38:57 10° NNE
YAOGAN 11 4.4 21:31:33 13° SSE 21:35:25 65° ENE 21:39:51 10° NNW
USA 267 4.4 21:34:04 13° S 21:38:32 26° SW 21:43:52 10° WNW
Cosmos 332 Rocket 3.8 21:33:46 10° NNW 21:38:36 86° WSW 21:42:48 14° SSE
Cosmos 1680 Rocket 3.7 21:36:36 10° SW 21:41:56 75° WNW 21:47:18 10° NNE
Meteor 2-3 Rocket 4.1 21:38:45 14° S 21:43:26 54° E 21:49:00 10° NNE
CZ-4C R/B 2.9 21:39:40 10° NW 21:46:24 84° NE 21:54:24 10° SE
IRIDIUM 104 4.4 21:42:58 15° S 21:47:26 86° E 21:52:41 10° N
Meteor 1-26 Rocket 4.4 21:41:44 10° NNW 21:47:48 86° WSW 21:52:58 14° S
COSMOS 2455 2.9 21:43:23 10° NW 21:49:25 72° SW 21:55:19 11° SSE
Cosmos 1452 Rocket 3.6 21:45:01 10° NNW 21:50:18 72° WSW 21:54:48 14° SSE
Cosmos 2151 3.3 21:47:18 12° SSW 21:51:14 62° WNW 21:55:29 10° N
Helios 1A 3.0 21:48:16 16° SSE 21:51:36 79° WSW 21:55:49 10° NNW
SL-8 Rocket 4.0 21:46:21 13° S 21:51:55 89° E 21:58:08 10° NNE
Cosmos 405 3.1 21:49:00 10° N 21:52:34 69° ENE 21:55:20 16° SSE
Cosmos 1110 Rocket 4.4 21:49:03 10° NNW 21:54:18 65° ENE 21:59:35 10° SE
SL-16 R/B 4.1 21:50:19 10° ESE 21:55:44 32° NE 22:01:10 10° N
IRIDIUM 114 4.4 21:52:07 14° S 21:56:35 83° W 22:01:52 10° N
Cosmos 1727 Rocket 4.0 21:51:35 10° NNW 21:57:51 87° WSW 22:03:21 14° S
Meteor 2-12 Rocket 4.5 21:53:25 14° S 21:58:48 84° E 22:05:00 10° NNE
Cosmos 1933 3.9 21:55:27 10° NNW 21:59:21 49° W 22:02:24 16° SSW
Cosmos 1151 Rocket 3.6 21:55:39 10° NNW 21:59:51 48° W 22:03:13 15° SSW
Cosmos 2369 Rocket 2.2 21:55:45 10° NW 22:01:23 88° SW 22:07:00 10° SSE
ALOS 2 3.6 21:58:03 14° SSW 22:01:29 37° W 22:05:35 10° NNW
Cosmos 1825 3.2 21:58:10 10° SW 22:01:46 40° WNW 22:05:23 10° N
Resurs 1-4 Rocket 4.4 21:59:58 10° ENE 22:02:07 12° E 22:04:16 10° ESE
Cosmos 1408 Rocket 3.6 21:58:51 16° S 22:02:21 77° E 22:06:48 10° NNE
Cosmos 1340 2.6 21:59:38 17° S 22:02:29 76° ESE 22:06:16 10° NNE
APEX 3.3 22:01:14 10° NW 22:03:45 32° WSW 22:05:07 20° S
Cosmos 1980 4.2 21:59:03 10° SW 22:04:39 62° NW 22:10:18 10° NNE
IRIDIUM 103 4.5 22:01:14 14° SSW 22:05:45 72° W 22:11:01 10° N
GP-B 3.7 22:03:18 10° N 22:07:37 50° W 22:11:23 13° SSW
Cosmos 371 Rocket 4.0 22:03:36 10° NW 22:08:10 41° WSW 22:11:47 15° S
Cosmos 44 3.2 22:05:14 13° SSW 22:08:55 54° SE 22:13:18 10° NE
COSMOS 2428 4.2 22:04:49 10° WSW 22:10:04 37° NW 22:15:21 10° NNE
Cosmos 1500 Rocket 4.0 22:07:42 15° SSE 22:11:09 51° E 22:15:26 10° NNE
Helios 1B rocket 3.4 22:12:05 10° NNE 22:15:56 36° E 22:19:04 14° SSE
Cosmos 1656 Rocket 3.8 22:12:27 10° NNW 22:17:54 72° NE 22:23:20 10° SE
Meteor 1-27 Rocket 4.5 22:12:52 10° N 22:18:17 48° ENE 22:23:44 10° SE
Cosmos 1782 2.9 22:16:39 10° NNW 22:20:35 64° W 22:23:34 16° S
SL-4 R/B 2.6 22:19:54 14° WSW 22:20:38 16° W 22:22:05 10° NW
Cosmos 2237 Rocket 3.0 22:17:28 10° WSW 22:23:03 53° NW 22:28:40 10° NNE
Genesis I 3.4 22:19:43 10° SW 22:23:37 75° NW 22:27:32 10° NE
CREW DRAGON DEMO-1 DEB 3.8 22:22:53 15° SW 22:24:44 27° SSE 22:27:24 10° ESE
Cosmos 2344 3.6 22:18:33 10° SW 22:26:01 83° SE 22:34:46 10° NE
Cosmos 2219 Rocket 4.1 22:21:14 10° W 22:26:09 30° NNW 22:31:06 10° NNE
Cosmos 1812 3.2 22:23:00 10° N 22:26:50 55° ENE 22:30:21 12° SSE
Cosmos 2263 4.2 22:21:55 10° NW 22:27:41 79° WSW 22:33:26 10° SSE
Cosmos 1805 Rocket 4.4 22:24:41 13° SSE 22:28:13 39° E 22:32:18 10° NNE
Cosmos 1346 Rocket 2.7 22:28:04 16° SSW 22:31:08 88° W 22:35:07 10° NNE
CZ-2D R/B 4.1 22:28:19 10° NE 22:32:06 20° E 22:35:54 10° SE
Cosmos 2333 Rocket 4.3 22:31:37 10° W 22:36:31 28° NNW 22:41:28 10° NNE
RESURS DK-1 2.4 22:35:32 10° NW 22:39:38 61° WSW 22:43:23 12° SSE
CZ-4 R/B 3.9 22:35:56 10° NNE 22:40:38 71° ESE 22:44:35 15° S
ATLAS 2AS CENTAUR R/B 4.4 22:37:12 10° WNW 22:41:53 18° WSW 22:46:22 10° SW
EP 3 4.0 22:42:46 12° WSW 22:44:29 59° NNW 22:46:33 10° NE
USA 215 3.4 22:39:01 10° E 22:45:37 87° N 22:52:13 10° W
USA 32 4.4 22:43:50 12° S 22:48:34 60° E 22:53:46 10° NNE
Cosmos 1707 Rocket 3.7 22:45:55 10° N 22:50:26 75° ENE 22:54:44 11° SSE
Gbstr 26 Del rocket 3.9 22:49:28 15° SSW 22:52:03 28° SSE 22:55:51 10° E
Cosmos 44 Rocket 4.4 22:51:43 13° S 22:55:04 28° ESE 22:59:08 10° ENE
Cosmos 2228 Rocket 3.8 22:51:18 10° NNW 22:55:40 44° W 22:59:19 14° SSW
Cosmos 1943 Rocket 3.2 22:55:35 10° NW 23:00:29 30° WSW 23:04:40 13° SSW
Landsat 4 4.3 22:56:58 10° N 23:00:40 51° WNW 23:03:59 12° SW
Cosmos 1943 3.7 22:56:06 13° S 23:00:52 48° ESE 23:06:18 10° NE
CRYOSAT 2 4.5 22:56:21 10° N 23:01:12 70° W 23:05:26 13° SSW
ATLAS 5 CENTAUR R/B 3.6 22:56:55 10° WNW 23:01:23 38° N 23:06:35 10° ENE
Cosmos 1862 3.3 22:58:33 15° S 23:01:50 79° E 23:05:50 10° NNE
Lacrosse 5 rocket 2.0 22:59:07 10° W 23:02:37 30° SW 23:05:58 10° SSE
Cosmos 1633 3.5 23:01:11 12° SW 23:04:15 40° WNW 23:07:42 10° N
Cosmos 494 Rocket 4.2 23:00:18 14° S 23:04:46 63° ESE 23:09:53 10° NNE
SL-16 R/B 2.7 23:01:41 10° SW 23:07:18 59° NW 23:12:57 10° NNE
Cosmos 2123 Rocket 4.0 23:03:12 10° NNW 23:09:26 76° W 23:15:27 11° S
DELTA 2 DEB (DPAF) 4.2 23:04:58 10° SSE 23:09:26 86° ENE 23:13:57 10° NNW
Cosmos 1862 Rocket 4.0 23:06:33 10° N 23:10:57 63° ENE 23:15:23 10° SSE
Cosmos 1821 Rocket 4.1 23:05:52 13° SSW 23:11:28 74° WNW 23:17:35 10° N
Meteor 1-4 Rocket 3.7 23:10:52 10° N 23:14:31 44° ENE 23:18:05 10° SE
Cosmos 1633 Rocket 3.7 23:11:22 11° SSE 23:15:30 49° E 23:19:46 10° NNE
Cosmos 1743 Rocket 4.3 23:12:36 11° SW 23:16:30 43° WNW 23:20:41 10° N
Sich 1 3.0 23:15:28 13° S 23:19:16 85° E 23:23:39 10° NNE
NOSS 2-1 (C) 4.4 23:15:09 10° NW 23:19:32 67° NNE 23:25:34 10° ESE
NOSS 2-1 (D) 4.3 23:19:48 10° NW 23:24:15 70° NNE 23:30:24 10° ESE
Cosmos 1048 Rocket 4.2 23:19:32 10° SW 23:24:45 70° WNW 23:30:00 10° NNE
Meteor 1-29 3.0 23:22:52 10° NNE 23:26:15 71° WNW 23:29:10 13° SSW
PSLV R/B 4.3 23:28:29 10° N 23:32:29 43° WNW 23:36:30 10° SW
Okean 1-7 4.4 23:29:08 10° N 23:33:18 39° ENE 23:37:27 10° SE
Cosmos 292 Rocket 3.9 23:28:50 10° NNW 23:33:36 61° WSW 23:38:19 10° SSE
Cosmos 389 Rocket 2.9 23:30:34 10° NNW 23:34:00 48° W 23:37:05 12° S
COSMOS 2455 4.4 23:30:21 10° WNW 23:34:25 19° WSW 23:38:24 10° SSW
SL-4 R/B 3.1 23:32:32 10° SSE 23:34:39 18° ESE 23:36:44 10° ENE
CZ-4C R/B 3.4 23:28:18 10° WNW 23:34:48 40° WSW 23:42:11 10° S
Iridium 4 Rocket 3.9 23:28:59 10° S 23:34:52 80° E 23:40:28 10° N
Cosmos 1992 Rocket 4.1 23:32:30 10° NNW 23:37:47 85° ENE 23:43:03 10° SSE
SL-16 R/B 2.6 23:32:40 10° SSE 23:38:55 75° WSW 23:45:14 10° NNW
Cosmos 1605 Rocket 4.1 23:34:34 10° S 23:40:56 82° E 23:47:16 10° NNE
Cosmos 1603 3.8 23:36:25 10° SW 23:42:05 87° WNW 23:47:52 10° NE
Resurs 1-4 Rocket 2.5 23:37:48 10° NNE 23:43:06 60° ESE 23:48:22 10° S
Cosmos 2369 Rocket 3.6 23:40:37 10° NW 23:44:42 21° WSW 23:48:48 10° SSW
Cosmos 1269 Rocket 4.1 23:39:58 11° SSW 23:45:05 81° ESE 23:50:25 10° NNE
SeaSat 1 2.8 23:41:34 10° NE 23:46:28 57° ESE 23:51:19 10° SSW
Cosmos 1933 Rocket 4.5 23:44:06 10° SSE 23:48:12 43° E 23:52:20 10° NNE
Cosmos 1666 Rocket 3.6 23:44:14 11° SSW 23:48:30 76° WNW 23:52:55 10° N
Cosmos 44 4.2 23:46:02 10° W 23:50:15 44° NNW 23:54:40 10° NE
Helios 1B rocket 3.6 23:47:26 10° N 23:51:12 34° WNW 23:54:56 10° SW
Cosmos 1703 Rocket 4.1 23:48:01 10° N 23:52:30 62° ENE 23:56:56 10° SSE
ISS -2.0 23:51:00 11° SSW 23:53:13 19° SSE 23:55:40 10° ESE
ADEOS II 3.4 23:49:34 10° NNE 23:54:23 34° E 23:59:10 10° SSE
